Time,TemperatureF,DewpointF,PressureIn,WindDirection,WindDirectionDegrees,WindSpeedMPH,WindSpeedGustMPH,Humidity,HourlyPrecipIn,Conditions,Clouds,dailyrainin,SoftwareType,DateUTC
2013-04-23 00:02:00,45.0,22.0,-100.00,South,185,12.0,15.0,39,-99.99,,,-99.99,,2013-04-23 07:02:00,
2013-04-23 00:11:00,45.0,22.0,-100.00,South,185,12.0,15.0,39,-99.99,,,-99.99,,2013-04-23 07:11:00,
2013-04-23 01:02:00,49.0,19.0,-100.00,SSW,200,10.0,14.0,30,-99.99,,,-99.99,,2013-04-23 08:02:00,
2013-04-23 02:01:00,47.0,19.0,-100.00,SW,235,7.0,10.0,32,-99.99,,,-99.99,,2013-04-23 09:01:00,
2013-04-23 03:02:00,44.0,21.0,-100.00,SW,220,6.0,7.0,39,-99.99,,,-99.99,,2013-04-23 10:02:00,
2013-04-23 04:02:00,36.0,25.0,-100.00,ENE,75,0.0,2.0,63,-99.99,,,-99.99,,2013-04-23 11:02:00,
2013-04-23 04:12:00,36.0,25.0,-100.00,ENE,75,0.0,2.0,63,-99.99,,,-99.99,,2013-04-23 11:12:00,
2013-04-23 05:02:00,36.0,24.0,-100.00,ENE,70,3.0,3.0,61,-99.99,,,-99.99,,2013-04-23 12:02:00,
2013-04-23 05:12:00,36.0,24.0,-100.00,ENE,70,3.0,3.0,61,-99.99,,,-99.99,,2013-04-23 12:12:00,
2013-04-23 06:01:00,35.0,25.0,-100.00,ENE,75,2.0,3.0,66,-99.99,,,-99.99,,2013-04-23 13:01:00,
2013-04-23 06:11:00,35.0,25.0,-100.00,ENE,75,2.0,3.0,66,-99.99,,,-99.99,,2013-04-23 13:11:00,
2013-04-23 07:01:00,36.0,26.0,-100.00,East,95,1.0,2.0,66,-99.99,,,-99.99,,2013-04-23 14:01:00,
2013-04-23 07:10:00,41.0,26.0,-100.00,ESE,115,1.0,2.0,54,-99.99,,,-99.99,,2013-04-23 14:10:00,
2013-04-23 07:11:00,36.0,26.0,-100.00,East,95,1.0,2.0,66,-99.99,,,-99.99,,2013-04-23 14:11:00,
2013-04-23 09:02:00,45.0,27.0,-100.00,NNE,25,3.0,5.0,49,-99.99,,,-99.99,,2013-04-23 16:02:00,
2013-04-23 09:20:00,48.0,29.0,-100.00,WSW,250,0.0,5.0,47,-99.99,,,-99.99,,2013-04-23 16:20:00,
2013-04-23 10:02:00,48.0,29.0,-100.00,WSW,250,0.0,5.0,47,-99.99,,,-99.99,,2013-04-23 17:02:00,
2013-04-23 10:11:00,48.0,29.0,-100.00,WSW,250,0.0,5.0,47,-99.99,,,-99.99,,2013-04-23 17:11:00,
2013-04-23 11:02:00,50.0,31.0,-100.00,NNW,340,2.0,6.0,47,-99.99,,,-99.99,,2013-04-23 18:02:00,
2013-04-23 11:12:00,50.0,31.0,-100.00,NNW,340,2.0,6.0,47,-99.99,,,-99.99,,2013-04-23 18:12:00,
2013-04-23 12:02:00,51.0,30.0,-100.00,NNE,30,6.0,7.0,44,-99.99,,,-99.99,,2013-04-23 19:02:00,
2013-04-23 12:11:00,51.0,30.0,-100.00,NNE,30,6.0,7.0,44,-99.99,,,-99.99,,2013-04-23 19:11:00,
2013-04-23 13:01:00,53.0,30.0,-100.00,North,360,5.0,8.0,41,-99.99,,,-99.99,,2013-04-23 20:01:00,
2013-04-23 13:11:00,53.0,30.0,-100.00,North,360,5.0,8.0,41,-99.99,,,-99.99,,2013-04-23 20:11:00,
2013-04-23 14:01:00,55.0,29.0,-100.00,South,180,1.0,9.0,36,-99.99,,,-99.99,,2013-04-23 21:01:00,
2013-04-23 14:10:00,58.0,25.0,-100.00,NNW,340,7.0,14.0,27,-99.99,,,-99.99,,2013-04-23 21:10:00,
2013-04-23 14:11:00,55.0,29.0,-100.00,South,180,1.0,9.0,36,-99.99,,,-99.99,,2013-04-23 21:11:00,
2013-04-23 15:03:00,58.0,25.0,-100.00,NNW,340,7.0,14.0,27,-99.99,,,-99.99,,2013-04-23 22:03:00,
2013-04-23 16:02:00,58.0,27.0,-100.00,North,360,7.0,15.0,30,-99.99,,,-99.99,,2013-04-23 23:02:00,
2013-04-23 16:12:00,58.0,27.0,-100.00,North,360,7.0,15.0,30,-99.99,,,-99.99,,2013-04-23 23:12:00,
2013-04-23 16:20:00,60.0,28.0,-100.00,North,360,6.0,12.0,29,-99.99,,,-99.99,,2013-04-23 23:20:00,
2013-04-23 17:01:00,60.0,28.0,-100.00,North,360,6.0,12.0,29,-99.99,,,-99.99,,2013-04-24 00:01:00,
2013-04-23 17:11:00,60.0,28.0,-100.00,North,360,6.0,12.0,29,-99.99,,,-99.99,,2013-04-24 00:11:00,
2013-04-23 18:01:00,61.0,28.0,-100.00,North,360,6.0,9.0,28,-99.99,,,-99.99,,2013-04-24 01:01:00,
2013-04-23 18:11:00,61.0,28.0,-100.00,North,360,6.0,9.0,28,-99.99,,,-99.99,,2013-04-24 01:11:00,
2013-04-23 18:15:00,60.0,26.0,-100.00,NNE,25,5.0,8.0,27,-99.99,,,-99.99,,2013-04-24 01:15:00,
2013-04-23 19:02:00,60.0,26.0,-100.00,NNE,25,5.0,8.0,27,-99.99,,,-99.99,,2013-04-24 02:02:00,
2013-04-23 20:06:00,59.0,30.0,-100.00,SE,130,2.0,3.0,33,-99.99,,,-99.99,,2013-04-24 03:06:00,
2013-04-23 20:14:00,59.0,30.0,-100.00,SE,130,2.0,3.0,33,-99.99,,,-99.99,,2013-04-24 03:14:00,
2013-04-23 21:03:00,47.0,31.0,-100.00,SE,135,3.0,5.0,53,-99.99,,,-99.99,,2013-04-24 04:03:00,
2013-04-23 21:10:00,46.0,28.0,-100.00,South,180,7.0,7.0,49,-99.99,,,-99.99,,2013-04-24 04:10:00,
2013-04-23 21:12:00,47.0,31.0,-100.00,SE,135,3.0,5.0,53,-99.99,,,-99.99,,2013-04-24 04:12:00,
2013-04-23 22:02:00,46.0,28.0,-100.00,South,180,7.0,7.0,49,-99.99,,,-99.99,,2013-04-24 05:02:00,
2013-04-23 23:02:00,46.0,28.0,-100.00,SW,220,3.0,6.0,49,-99.99,,,-99.99,,2013-04-24 06:02:00,
2013-04-23 23:11:00,46.0,28.0,-100.00,SW,220,3.0,6.0,49,-99.99,,,-99.99,,2013-04-24 06:11:00,
2013-04-23 23:20:00,43.0,29.0,-100.00,WSW,240,1.0,3.0,57,-99.99,,,-99.99,,2013-04-24 06:20:00,